Showing default

SJ-25, 62485

Orbit data source: Space-Track

SJ-25, 62485 is a payload satellite owned by SAST (CN) in GEO that was launched on Mon, 06 Jan 2025 UTC via a CHANG ZHENG 3B launch vehicle from the Xichang Space Center, China (XSC). Payload-class satellites include a variety of spacecraft equipped with specific instruments for various scientific and technological missions. These include communications satellites like Starlink; space stations such as the ISS; scientific satellites like the Hubble; Earth observation satellites from companies like Planet Labs, Umbra, and HawkEye 360; GPS; miniature CubeSats for education and research; and military/defense satellites.

Not visible in the next 10 days
Identifier
62485, 2025-002A
Orbit
GEO
Country
Flag of CNCN / PRC
Related business
Manufacturer
SAST?
Mission
Operational Defense Technology
Bus & Motor
SJ21, Unknown motor
Mass
~5,000 kg wet, ~2,500 kg dry
Launch date (UTC)
2025-01-06 (1 year ago)
Launch vehicle
CHANG ZHENG 3B
Launch site
Xichang Space Center, China (XSC)
Object type
Payload
Rocket body
Debris
Shape & HBR
Box + 2 Pan, 3.4 m
Radar Cross Section
34.063 m², Large (>1 m²)

Expand to show TLE details & history
Last TLE update: 17 hours ago

TLE from 17 hours ago
0 SJ-25
1 62485U 25002A   26164.77108918 -.00000344  00000-0  00000+0 0  9995
2 62485   5.1048  61.1838 0052236 173.2448  72.5687  1.00269176  5326
Epoch: 2026-06-13T18:30Z
TLE epoch observation values (Epoch: 2026-06-13T18:30:22.105Z)
Latitude
-4.69798°
Longitude
127.81655°
Altitude
35,721.574 km
Speed
3.079 km/s
True Right ascension
20h 29m 57s
True Declination
-4° 41' 36"
Sunlit
Object was in daylight at epoch
Visualization orbit readout
Latitude
Unknown
Longitude
Unknown
Altitude
Unknown
Speed
Unknown
Apparent Right ascension
Unknown
Apparent Declination
Unknown
Sunlit
N/A
Visualization observer readout
Local Sidereal Time
22:25:53
Azimuth
Unknown
Elevation
Unknown
Doppler factor
Unknown
Orbital elements
Apogee altitude
36,008.645 km
Perigee altitude
35,568.123 km
Semi-major axis
42,166.521 km
Eccentricity
0.00522
Inclination
5.1048°
RAAN
61.1838°
Arg. of periapsis
173.2448°
True anomaly
73.1409°
Mean anomaly
72.5687°
Eccentric anomaly
72.85469°
Mean motion
0.25066 °/min
Orbital period
1,436.19 mins
BSTAR
0
Loading maneuver chart data...
Computing Atmospheric mass density...
Loading historical data...
Loading historical data...
Loading historical data...
Loading historical data...
Loading historical data...
Loading historical data...
Loading historical data...
Other satellites on launch #2 in the year 2025 (2025-01-06 UTC)

Documentation

Showing up to 5 results
|